Weather History for Lamar, CO

Change the Weather History Date:

Thursday, November 22, 2012

  Actual Average Record
Temperature  
Mean Temperature 42 °F 37 °F  
Max Temperature 64 °F 53 °F 82 °F (1998)
Min Temperature 20 °F 21 °F -2 °F (1975)
Degree Days  
Heating Degree Days 23 28  
Month to date heating degree days 403 511  
Since 1 July heating degree days 860 978  
Cooling Degree Days 0 0  
Month to date cooling degree days 0 0  
Year to date cooling degree days 1626 1121  
Moisture  
Dew Point 16 °F    
Average Humidity 34    
Maximum Humidity 50    
Minimum Humidity 17    
Precipitation  
Precipitation 0.00 in 0.00 in 0.33 in (1937)
Month to date precipitation 0.13 0.32  
Year to date precipitation 6.06 14.74  
Sea Level Pressure  
Sea Level Pressure 30.09 in    
Wind  
Wind Speed 8 mph (West)    
Max Wind Speed 23 mph    
Max Gust Speed 28 mph    
Visibility 10 miles    
Events      
T = Trace of Precipitation, MM = Missing Value Source: NWS Daily Summary

Daily Weather History Graph

Daily Weather History Graph

Search for Another Location

Airport:

Trip Planner

Search our weather history database for the weather conditions in past years. The results will help you decide how hot, cold, wet, or windy it might be!

Date:

Astronomy

Nov. 22, 2012 Rise Set
Actual Time 6:39 AM MST 4:34 PM MST
Civil Twilight 6:11 AM MST 5:02 PM MST
Nautical Twilight 5:38 AM MST 5:35 PM MST
Astronomical Twilight 5:07 AM MST 6:06 PM MST
Moon 1:16 PM MST (11/22) 1:06 AM MST (11/22)
Length of Visible Light 10h 51m
Length of Day
9h 54m
Waxing Gibbous, 72% of the Moon is Illuminated
Nov 22
Waxing Gibbous
Nov 28
Full
Dec 6
Last Quarter
Dec 13
New
Dec 19
First Quarter

Hourly Weather History & Observations

Time (MST) Temp. Windchill Dew Point Humidity Pressure Visibility Wind Dir Wind Speed Gust Speed Precip Events Conditions
12:53 AM 36.0 °F 30.3 °F 14.0 °F 41% 29.77 in 10.0 mi SW 6.9 mph - N/A   Clear
1:53 AM 37.0 °F 33.3 °F 12.0 °F 36% 29.77 in 10.0 mi West 4.6 mph - N/A   Clear
2:53 AM 41.0 °F 35.8 °F 14.0 °F 33% 29.78 in 10.0 mi WSW 8.1 mph - N/A   Clear
3:53 AM 34.0 °F 27.2 °F 14.0 °F 44% 29.82 in 10.0 mi SW 8.1 mph - N/A   Clear
4:53 AM 35.1 °F 27.9 °F 14.0 °F 42% 29.86 in 10.0 mi SW 9.2 mph - N/A   Clear
5:53 AM 35.1 °F 27.4 °F 14.0 °F 42% 29.91 in 10.0 mi SSW 10.4 mph - N/A   Clear
6:53 AM 30.9 °F 23.5 °F 12.9 °F 47% 29.94 in 10.0 mi SSW 8.1 mph - N/A   Clear
7:53 AM 45.0 °F 43.5 °F 14.0 °F 29% 29.95 in 10.0 mi West 3.5 mph - N/A   Clear
8:53 AM 52.0 °F - 12.0 °F 20% 29.99 in 10.0 mi West 9.2 mph - N/A   Clear
9:53 AM 55.0 °F - 12.9 °F 19% 30.02 in 10.0 mi West 10.4 mph - N/A   Clear
10:53 AM 60.1 °F - 15.1 °F 17% 30.02 in 10.0 mi Variable 3.5 mph - N/A   Clear
11:53 AM 62.1 °F - 25.0 °F 24% 30.03 in 10.0 mi NNE 19.6 mph 24.2 mph N/A   Clear
12:53 PM 63.0 °F - 27.0 °F 26% 30.04 in 10.0 mi NE 17.3 mph - N/A   Clear
1:53 PM 61.0 °F - 28.0 °F 29% 30.07 in 10.0 mi North 16.1 mph - N/A   Clear
2:53 PM 57.0 °F - 26.1 °F 30% 30.11 in 10.0 mi NNE 15.0 mph 23.0 mph N/A   Clear
3:53 PM 55.0 °F - 23.0 °F 29% 30.16 in 10.0 mi NE 11.5 mph 20.7 mph N/A   Clear
4:53 PM 48.9 °F - 21.0 °F 33% 30.22 in 10.0 mi NE 11.5 mph - N/A   Clear
5:53 PM 42.1 °F 37.1 °F 17.1 °F 37% 30.29 in 10.0 mi NE 8.1 mph - N/A   Clear
6:53 PM 37.9 °F 35.5 °F 15.1 °F 39% 30.35 in 10.0 mi NNE 3.5 mph - N/A   Clear
7:53 PM 33.1 °F - 14.0 °F 46% 30.38 in 10.0 mi Calm Calm - N/A   Clear
8:53 PM 30.0 °F - 12.9 °F 49% 30.41 in 10.0 mi Calm Calm - N/A   Clear
9:53 PM 28.9 °F - 12.0 °F 49% 30.44 in 10.0 mi Calm Calm - N/A   Clear
10:53 PM 26.1 °F 21.9 °F 10.9 °F 53% 30.46 in 10.0 mi SSW 3.5 mph - N/A   Clear
11:53 PM 23.0 °F 15.8 °F 10.9 °F 60% 30.48 in 10.0 mi SSW 5.8 mph - N/A   Clear